Regional Weather Roundup
Issued by NWS

Home | Current Version | Previous Version | Graphics & Text | Print | Product List | Glossary On
Versions: 1 2 3 4 5 6 7 8 9 10 11 12 13 14 15 16 17 18 19 20 21 22 23 24 25 26 27 28 29 30 31 32 33 34 35 36 37 38 39 40 41 42 43 44 45 46 47 48 49 50
000
ASUS43 KOAX 231210
RWRNE

WEATHER ROUNDUP FOR NEBRASKA
NATIONAL WEATHER SERVICE OMAHA NE
700 AM CDT SUN JUL 23 2017

NOTES: SATELLITE DATA IS BEING USED TO AUGMENT CLOUD COVER ABOVE
       12000 FEET.
       "FAIR" INDICATES FEW OR NO CLOUDS BELOW 12,000 FEET WITH NO
       SIGNIFICANT WEATHER AND/OR OBSTRUCTIONS TO VISIBILITY.


NEZ001>004-019>022-054>056-231300-
NEBRASKA PANHANDLE

CITY           SKY/WX    TMP DP  RH WIND       PRES   REMARKS
SCOTTSBLUFF    CLEAR     59  53  80 CALM      30.12R
6HR MIN TEMP:  59; 6HR MAX TEMP:  68;

ALLIANCE       CLEAR     51  47  86 CALM      30.12R
6HR MIN TEMP:  51; 6HR MAX TEMP:  65;

CHADRON        CLEAR     56  52  86 CALM      30.10R
6HR MIN TEMP:  55; 6HR MAX TEMP:  65;

GORDON         FAIR      54  51  89 CALM      30.12R
6HR MIN TEMP:  54; 6HR MAX TEMP:  63;

KIMBALL        CLEAR     57  53  86 W7        30.19R
SIDNEY         CLEAR     56  49  77 W6        30.15S
6HR MIN TEMP:  55; 6HR MAX TEMP:  64;

$$

NEZ057>060-069>072-079>082-231300-
SOUTHWEST NEBRASKA

CITY           SKY/WX    TMP DP  RH WIND       PRES   REMARKS
NORTH PLATTE   CLEAR     54  52  93 CALM      30.06R
6HR MIN TEMP:  52; 6HR MAX TEMP:  61;

IMPERIAL       CLEAR     60  54  80 NW7       30.09R
6HR MIN TEMP:  57; 6HR MAX TEMP:  67;

LEXINGTON      CLEAR     61  59  94 W3        30.04R FOG
MCCOOK         CLEAR     59  55  87 CALM      30.05R FOG
6HR MIN TEMP:  57; 6HR MAX TEMP:  66;

OGALLALA       CLEAR     55  52  90 CALM      30.09R
$$

NEZ005>010-023>029-035>040-094-231300-
NORTH CENTRAL NEBRASKA

CITY           SKY/WX    TMP DP  RH WIND       PRES   REMARKS
VALENTINE      CLEAR     57  46  66 W5        30.09R
6HR MIN TEMP:  57; 6HR MAX TEMP:  72;

AINSWORTH      CLEAR     62  55  79 NW3       30.08R
BROKEN BOW     CLEAR     61  56  83 SW5       30.04R
6HR MIN TEMP:  60; 6HR MAX TEMP:  68;

O`NEILL        CLEAR     64  61  91 N6        30.01R
ORD            CLEAR     61  59  93 N3        30.00R FOG
6HR MIN TEMP:  58; 6HR MAX TEMP:  66;

THEDFORD       CLEAR     63  51  66 CALM      30.09R
$$

NEZ041-046>049-061>064-073>077-083>087-231300-
SOUTH CENTRAL NEBRASKA

CITY           SKY/WX    TMP DP  RH WIND       PRES   REMARKS
GRAND ISLAND   CLEAR     64  64 100 SW5       29.99R FOG
6HR MIN TEMP:  63; 6HR MAX TEMP:  68;

AURORA         CLEAR     64  64 100 W5        29.99R FOG
HASTINGS       CLEAR     67  64  90 CALM      30.01R FOG
6HR MIN TEMP:  66; 6HR MAX TEMP:  72;

HEBRON         PTCLDY    69  67  92 S5        29.99S
HOLDREGE       CLEAR     65  64  96 CALM      30.03R FOG
KEARNEY        CLEAR     67  66  97 W3        30.02R FOG
YORK           CLEAR     64  64 100 CALM      29.98R FOG
$$

NEZ011>018-030>034-042>045-231300-
NORTHEAST NEBRASKA

CITY           SKY/WX    TMP DP  RH WIND       PRES   REMARKS
NORFOLK        PTCLDY    59  58  96 NW3       29.98R FOG
6HR MIN TEMP:  57; 6HR MAX TEMP:  66;

ALBION         CLEAR     60  58  96 N3        29.99S FOG
BLAIR          HVY RAIN  67  66  97 CALM      29.95S VSB<1/4
COLUMBUS       CLEAR     61  60  97 CALM      29.98R FOG
FREMONT        CLEAR     64  62  96 W3        29.96S FOG
TEKAMAH        CLEAR     63  62  97 SW3       29.94R FOG
6HR MIN TEMP:  63; 6HR MAX TEMP:  69;

WAYNE          CLEAR     60  60  99 SW5       29.97S
$$

NEZ050>053-065>068-078-088>093-231300-
SOUTHEAST NEBRASKA

CITY           SKY/WX    TMP DP  RH WIND       PRES   REMARKS
LINCOLN        CLEAR     68  66  93 CALM      29.97R
6HR MIN TEMP:  66; 6HR MAX TEMP:  74;

OMAHA EPPLEY   FOG       70  67  90 N5        29.94S VSB<1/4
6HR MIN TEMP:  68; 6HR MAX TEMP:  76;

BEATRICE       CLOUDY    73  69  89 SW8       29.97R
FALLS CITY     CLOUDY    73  69  87 SW8       29.93S
6HR MIN TEMP:  70; 6HR MAX TEMP:  78;

NEBRASKA CITY  CLOUDY    71  71 100 N3        29.96R FOG
PLATTSMOUTH    FOG       71  70  97 CALM      29.96R VSB<1/4
$$

NEZ044-045-051>053-067-231300-
OMAHA AREA

CITY           SKY/WX    TMP DP  RH WIND       PRES   REMARKS
OMAHA EPPLEY   FOG       70  67  90 N5        29.94S VSB<1/4
6HR MIN TEMP:  68; 6HR MAX TEMP:  76;

BLAIR          HVY RAIN  67  66  97 CALM      29.95S VSB<1/4
FREMONT        CLEAR     64  62  96 W3        29.96S FOG
MILLARD        CLEAR     71  69  95 CALM      29.94S FOG
OFFUTT AFB     CLEAR     71  70  98 N3        29.94R FOG
PLATTSMOUTH    FOG       71  70  97 CALM      29.96R VSB<1/4
WAHOO          FAIR      64  63  97 NW5       29.95S FOG
$$



USA.gov is the U.S. government's official web portal to all federal, state and local government web resources and services.